Regional Weather Roundup
Issued by NWS

Home | Current Version | Previous Version | Graphics & Text | Print | Product List | Glossary On
Versions: 1 2 3 4 5 6 7 8 9 10 11 12 13 14 15 16 17 18 19 20 21 22 23 24 25 26 27 28 29 30 31 32 33 34 35 36 37 38 39 40 41 42 43 44 45 46 47 48
000
ASUS43 KDMX 101607
RWRIA

WEATHER ROUNDUP FOR IOWA
NATIONAL WEATHER SERVICE DES MOINES IA
1100 AM CDT THU JUL 10 2014

NOTE: "FAIR" INDICATES FEW OR NO CLOUDS BELOW 12,000 FEET WITH NO
SIGNIFICANT WEATHER AND/OR OBSTRUCTIONS TO VISIBILITY.

* - THESE STATIONS ARE NOT NWS STATIONS...THUS NOT UNDER NWS
QUALITY CONTROL.  THEY ALSO DO NOT REPORT WEATHER SUCH
AS PRECIPITATION OR FOG.

IAZ001>003-012>014-020>022-031>034-043>046-101700-
   NORTHWEST IOWA

CITY           SKY/WX    TMP DP  RH WIND       PRES   REMARKS
CARROLL *      MOSUNNY   77  59  53 S15       30.08S
CHEROKEE *     CLOUDY    75  64  69 S16       30.05S
DENISON *      PTSUNNY   75  63  64 S14       30.05S
LE MARS *      SUNNY     77  66  69 SE14      30.02F
ORANGE CITY *  SUNNY     75  61  60 S12       30.03F
SHELDON *      MOSUNNY   75  64  69 S9G17     30.03F
SIOUX CITY     SUNNY     76  65  68 S12       30.02F
SPENCER        MOSUNNY   77  60  55 S15       30.06F
STORM LAKE *   SUNNY     77  63  61 S17G23    30.07F
$$

IAZ055>058-069>071-079>083-090>094-101700-
   SOUTHWEST IOWA

CITY           SKY/WX    TMP DP  RH WIND       PRES   REMARKS
ATLANTIC *     SUNNY     77  61  57 S13G22    30.07S
AUDUBON *      SUNNY     79  64  61 S13       30.09F HX  81
CLARINDA *     SUNNY     77  64  65 S10G17    30.10S
COUNCIL BLFS * SUNNY     77  68  73 S14G22    30.05S
CRESTON *      MOSUNNY   75  63  64 S16       30.11S
HARLAN  *      MOSUNNY   77  63  61 S16       30.10S
LAMONI         CLOUDY    74  62  66 S14       30.13R
RED OAK *      SUNNY     77  64  65 S17       30.07S
SHENANDOAH *   SUNNY     79  64  61 SE15G23   30.07S HX  81
$$

IAZ047>049-059>061-072>074-084-101700-
   CENTRAL IOWA

CITY           SKY/WX    TMP DP  RH WIND       PRES   REMARKS
AMES           SUNNY     77  61  57 S15       30.10F
ANKENY *       SUNNY     77  63  61 S7G15     30.10F
CHARITON *     SUNNY     77  61  57 S13       30.13S
DES MOINES     MOSUNNY   79  61  53 S12       30.10F HX  80
GRINNELL*      SUNNY     75  59  57 S10       30.13F
KNOXVILLE *    SUNNY     75  59  57 S9        30.11S
MARSHALLTOWN   SUNNY     76  63  64 S10       30.11F
PELLA *        SUNNY     79  61  53 S9        30.13F HX  80
PERRY *          N/A     77  63  61 S15       30.09F
$$

IAZ004>006-015-016-023>025-035-036-101700-
   NORTH CENTRAL IOWA

CITY           SKY/WX    TMP DP  RH WIND       PRES   REMARKS
ALGONA *       SUNNY     77  61  57 S13G23    30.09R
CLARION *      SUNNY     77  61  57 S16G22    30.09F
ESTHERVILLE    SUNNY     76  61  59 S16G22    30.07R
FORT DODGE *   SUNNY     75  63  64 S9        30.10S
MASON CITY     MOSUNNY   77  61  57 S12       30.11S
FOREST CITY *  SUNNY     75  61  60 S10G16    30.10S
IOWA FALLS *     N/A     75  61  60 S13G18    30.12S
$$

IAZ007>011-017>019-026>030-037>042-050>054-066-101700-
   NORTHEAST IOWA

CITY           SKY/WX    TMP DP  RH WIND       PRES   REMARKS
CEDAR RAPIDS   SUNNY     76  59  55 SW12      30.14S
CHARLES CITY * PTSUNNY   75  63  64 S9        30.12F
CLINTON *      SUNNY     75  59  57 S7        30.20S
DECORAH *        N/A    N/A N/A N/A MISG        N/A
DUBUQUE        SUNNY     73  61  65 SW9       30.16F
MONTICELLO *   SUNNY     75  63  64 S9        30.15S
OELWEIN *      SUNNY     75  68  78 SW12      30.14S
WATERLOO       SUNNY     77  59  53 SW13      30.11S
$$

IAZ064-065-067-068-078-101700-
   EAST CENTRAL IOWA

CITY           SKY/WX    TMP DP  RH WIND       PRES   REMARKS
DAVENPORT      SUNNY     75  60  59 S6        30.17S
IOWA CITY      SUNNY     77  62  59 S9        30.15S
MT. PLEASANT * SUNNY     79  57  47 S3        30.15S HX  80
MUSCATINE *    SUNNY     79  59  50 SW7       30.15S HX  80
QUAD CITIES    SUNNY     76  60  57 S5        30.16R
$$

IAZ062-063-075>077-085>089-095>099-101700-
   SOUTHEAST IOWA

CITY           SKY/WX    TMP DP  RH WIND       PRES   REMARKS
BURLINGTON     SUNNY     77  60  55 SE8       30.15F
FAIRFIELD *    SUNNY     77  59  53 S10       30.15S
FORT MADISON * SUNNY     77  59  53 SE6       30.16S
KEOKUK *       SUNNY     77  61  57 SE9       30.15R
OSKALOOSA *      N/A     77  61  57 S9        30.14S
CENTERVILLE *  SUNNY     75  63  64 SE9       30.16S
OTTUMWA        SUNNY     76  61  59 S7        30.13F
WASHINGTON *   SUNNY     77  61  57 SW10      30.15S
$$

ABBREVIATIONS USED IN REMARKS
   TC - TEMPERATURES IN CELSIUS
  WCI - WIND CHILL INDEX
   HX - HEAT INDEX
  VSB - VISIBILITY
$$




USA.gov is the U.S. government's official web portal to all federal, state and local government web resources and services.